Hulianwang W. Digui 15-03

operational
NORAD ID: 66955 Int'l Des: 2025-287 Owner: ZXW Country: CN Constellation: xingwang
LEOCIRCULARPOLAR

Über Hulianwang W. Digui 15-03

Beschreibung wird geladen...

Live-Position

3D-Globus wird geladen...

Nächste Überflüge

Höhenverlauf

Altitude vs Time

uPlot chart will show altitude changes over time

Zweizeiliger Elementsatz

1 66955U 25287C 25347.43124659 .00000039 00000-0 26516-4 0 9996
2 66955 86.4909 345.8981 0008040 196.0831 164.0075 13.68903032 623
Epoch: 13. Dez. 2025 • Age: 22 hours

Aktueller Status

Höhe 1003.3 km
Geschwindigkeit 7.35 km/s
Subsatellitenpunkt 31.27°N, 41.7°W
Startdatum 8. Dez. 2025
Alter 6 days
Typ other

Technische Details

Klassifizierung Payload
Masse 800.00 kg
Trockenmasse 800.00 kg
Gesamtmasse 800.00 kg
Länge 3.00 m
Durchmesser 1.00 m
Spannweite 10.00 m
Form Box + 2 Pan
Hersteller SECM
Bus-Typ Guowang S
Phasenstatus In Orbit
Besitzer/Staat ZXW/CN

Große Konstellationen

Loading constellations...